Location: Unspecified
(16.4764°N, 0.0000°E)
Time: 18:53:17
(UTC+00:00)

Vanguard 2 Rocket - Visible Passes

Search period start: 04 April 2026 00:00
Search period end: 14 April 2026 00:00
Orbit: 554 x 3286 km, 32.9° (Epoch: 29 March)

Date Brightness Start Highest point End Pass type
(mag) Time Alt. Az. Time Alt. Az. Time Alt. Az.
4 Apr 8.1 04:31:21 13° NW 04:36:16 47° NNE 04:45:23 10° ESE visible
4 Apr 8.9 18:28:53 10° SSW 18:36:18 20° SSE 18:41:33 10° ESE visible
4 Apr 8.4 20:42:37 10° SW 20:47:27 33° SW 20:47:27 33° SW visible
5 Apr 8.3 03:30:17 25° NNE 03:31:11 27° NNE 03:37:08 10° E visible
5 Apr 7.5 19:35:58 10° SW 19:45:22 45° SSE 19:46:42 41° ESE visible
6 Apr 7.5 04:34:36 16° NW 04:39:00 67° NNE 04:48:15 10° ESE visible
6 Apr 8.7 18:29:24 10° SSW 18:39:31 31° SSE 18:45:52 10° E visible
6 Apr 8.0 20:45:03 10° WSW 20:51:22 46° WSW 20:51:22 46° WSW visible
7 Apr 7.8 03:33:36 36° NNE 03:34:02 36° NNE 03:40:33 10° E visible
7 Apr 7.4 19:37:46 10° SW 19:48:18 69° SSE 19:50:38 43° E visible
7 Apr 9.8 21:55:44 10° W 21:56:01 11° W 21:56:01 11° W visible
8 Apr 9.5 02:32:39 11° ENE 02:32:39 11° ENE 02:32:55 10° ENE visible
8 Apr 7.0 04:38:01 21° WNW 04:41:47 83° SSW 04:50:45 10° SE visible
8 Apr 8.3 18:30:33 10° SW 18:42:35 47° SSE 18:49:31 10° ENE visible
8 Apr 8.0 20:47:53 10° WSW 20:55:16 46° WNW 20:55:16 46° WNW visible
9 Apr 7.2 03:37:07 54° NE 03:37:07 54° NE 03:43:40 10° ESE visible
9 Apr 7.5 19:39:58 10° WSW 19:51:04 83° NNW 19:54:30 32° NE visible
9 Apr 9.8 21:59:23 10° WNW 21:59:53 11° WNW 21:59:53 11° WNW visible
10 Apr 9.5 02:36:16 11° E 02:36:16 11° E 02:36:36 10° E visible
10 Apr 7.2 04:41:38 25° W 04:44:40 52° SSW 04:52:52 10° SE visible
10 Apr 8.1 18:32:08 10° SW 18:45:27 68° SSE 18:52:46 10° ENE visible
10 Apr 8.3 20:51:01 10° W 20:59:00 36° NNW 20:59:05 36° NNW visible
11 Apr 7.0 03:40:48 57° ESE 03:40:48 57° ESE 03:46:24 10° ESE visible
11 Apr 8.0 19:42:33 10° WSW 19:53:46 61° NNW 19:58:15 22° NE visible
11 Apr 9.8 22:03:09 10° WNW 22:03:37 11° NW 22:03:37 11° NW visible
12 Apr 7.7 04:45:24 23° WSW 04:47:42 31° SSW 04:54:30 10° SSE visible
12 Apr 8.2 18:34:08 10° WSW 18:48:09 90° NW 18:55:45 10° ENE visible
12 Apr 8.6 20:54:25 10° W 21:01:52 28° NNW 21:02:44 27° NNW visible
13 Apr 7.7 03:44:37 33° SSE 03:44:37 33° SSE 03:48:44 10° SE visible
13 Apr 8.6 19:45:27 10° W 19:56:27 46° NNW 20:01:47 16° NE visible
13 Apr 9.8 22:06:48 10° NW 22:07:10 11° NW 22:07:10 11° NW visible
